Pensacola, FL

7:44 PM CDT on June 24, 2018 (GMT -0500)
Pensacola Regional

Weather History for KPNS - August, 2017

Change the Weather History Date:

Sunday, August 13, 2017

  Actual Average Record
Temperature  
Mean Temperature 85 °F 82 °F  
Max Temperature 92 °F 90 °F 100 °F (1951)
Min Temperature 77 °F 74 °F 65 °F (2004)
Cooling Degree Days 20 17  
Month to date cooling degree days 236 221  
Year to date cooling degree days 2123 1667  
Since 1 June cooling degree days 1327 1219  
Growing Degree Days 34 (Base 50)    
Moisture  
Dew Point 74 °F    
Average Humidity 74    
Maximum Humidity 88    
Minimum Humidity 60    
Precipitation  
Precipitation 1.22 in 0.23 in 5.13 in (1987)
Month to date precipitation 9.24 3.10  
Year to date precipitation 63.65 41.11  
Sea Level Pressure  
Sea Level Pressure 29.93 in    
Wind  
Wind Speed 5 mph (WSW)    
Max Wind Speed 26 mph    
Max Gust Speed 35 mph    
Visibility 8 miles    
Events Rain    
T = Trace of Precipitation, MM = Missing Value Source: NWS Daily Summary

Daily Weather History Graph

Daily Weather History Graph

Search for Another Location

Airport or City:

Astronomy

Aug. 13, 2017 Rise Set
Actual Time 6:14 AM CDT 7:32 PM CDT
Civil Twilight 5:49 AM CDT 7:57 PM CDT
Nautical Twilight 5:18 AM CDT 8:27 PM CDT
Astronomical Twilight 4:47 AM CDT 8:58 PM CDT
Moon 11:32 PM CDT (8/13) 11:49 AM CDT (8/13)
Length of Visible Light 14h 08m
Length of Day
13h 17m
Waning Gibbous, 65% of the Moon is Illuminated
Aug 13
Waning Gibbous
Aug 14
Last Quarter
Aug 21
New
Aug 29
First Quarter
Sep 6
Full

Hourly Weather History & Observations

Time (CDT) Temp. Heat Index Dew Point Humidity Pressure Visibility Wind Dir Wind Speed Gust Speed Precip Events Conditions
12:53 AM 80.1 °F 84.2 °F 73.0 °F 79% 29.93 in 10.0 mi Calm Calm - N/A   Clear
1:53 AM 79.0 °F - 73.0 °F 82% 29.92 in 10.0 mi Calm Calm - N/A   Partly Cloudy
2:53 AM 79.0 °F - 73.0 °F 82% 29.91 in 10.0 mi Calm Calm - N/A   Scattered Clouds
3:53 AM 77.0 °F - 73.0 °F 88% 29.91 in 10.0 mi North 3.5 mph - N/A   Partly Cloudy
4:53 AM 78.1 °F - 73.0 °F 84% 29.93 in 10.0 mi NNW 3.5 mph - N/A   Clear
5:53 AM 78.1 °F - 73.0 °F 84% 29.94 in 10.0 mi Calm Calm - N/A   Clear
6:53 AM 78.1 °F - 73.9 °F 87% 29.95 in 10.0 mi North 3.5 mph - N/A   Clear
7:53 AM 82.0 °F 87.9 °F 73.9 °F 76% 29.97 in 10.0 mi North 3.5 mph - N/A   Clear
8:53 AM 86.0 °F 93.8 °F 73.9 °F 67% 29.97 in 10.0 mi NNE 5.8 mph - N/A   Clear
9:53 AM 88.0 °F 96.5 °F 73.9 °F 63% 29.97 in 10.0 mi NE 3.5 mph - N/A   Clear
10:53 AM 91.0 °F 101.6 °F 75.0 °F 59% 29.97 in 10.0 mi Variable 3.5 mph - N/A   Scattered Clouds
11:53 AM 90.0 °F 100.2 °F 75.0 °F 61% 29.96 in 10.0 mi Calm Calm - N/A   Mostly Cloudy
12:53 PM 89.1 °F 100.2 °F 75.9 °F 65% 29.95 in 10.0 mi SE 6.9 mph - N/A   Mostly Cloudy
1:53 PM 91.0 °F 104.2 °F 77.0 °F 63% 29.93 in 10.0 mi South 11.5 mph - N/A   Scattered Clouds
2:53 PM 91.0 °F 106.2 °F 78.1 °F 66% 29.92 in 10.0 mi SSW 15.0 mph - N/A   Partly Cloudy
3:53 PM 86.0 °F 92.2 °F 72.0 °F 63% 29.92 in 6.0 mi SW 13.8 mph 23.0 mph 0.00 in Rain Light Rain
4:00 PM 84.9 °F 93.3 °F 75.0 °F 72% 29.91 in 6.0 mi WSW 16.1 mph 23.0 mph 0.00 in Rain Light Rain
4:04 PM 84.0 °F 89.6 °F 72.0 °F 67% 29.92 in 1.2 mi WNW 21.9 mph 35.7 mph 0.00 in Rain Light Rain
4:11 PM 84.0 °F 87.8 °F 69.1 °F 61% 29.92 in 0.5 mi WSW 16.1 mph 34.5 mph 0.28 in Rain Heavy Rain
4:13 PM 84.0 °F 87.8 °F 69.1 °F 61% 29.92 in 0.2 mi West 8.1 mph 34.5 mph 0.39 in Rain Heavy Rain
4:20 PM 84.0 °F 86.5 °F 66.9 °F 56% 29.92 in 0.5 mi Variable 3.5 mph 27.6 mph 0.63 in Rain Heavy Rain
4:25 PM 84.0 °F 86.3 °F 66.0 °F 55% 29.93 in 0.2 mi SW 20.7 mph 27.6 mph 0.84 in Rain Heavy Rain
4:35 PM 82.9 °F 87.0 °F 70.0 °F 65% 29.91 in 1.0 mi SW 11.5 mph 29.9 mph 1.13 in Rain Heavy Rain
4:42 PM 82.0 °F 86.7 °F 72.0 °F 71% 29.92 in 3.0 mi WSW 21.9 mph 28.8 mph 1.15 in Rain Rain
4:49 PM 80.6 °F 84.6 °F 71.6 °F 74% 29.91 in 5.0 mi WSW 12.7 mph 28.8 mph 1.17 in Rain Light Rain
4:53 PM 82.9 °F 87.0 °F 70.0 °F 65% 29.91 in 4.0 mi SW 11.5 mph - 1.17 in Rain Light Rain
5:23 PM 86.0 °F 93.8 °F 73.9 °F 67% 29.90 in 10.0 mi SSW 13.8 mph - 0.04 in Rain Light Rain
5:53 PM 88.0 °F 103.1 °F 79.0 °F 75% 29.91 in 10.0 mi SSW 8.1 mph - 0.05 in   Clear
6:53 PM 86.0 °F 96.9 °F 77.0 °F 74% 29.91 in 10.0 mi SSW 9.2 mph - N/A   Clear
7:53 PM 84.9 °F 95.3 °F 77.0 °F 77% 29.92 in 10.0 mi SSW 6.9 mph - N/A   Clear
8:53 PM 84.9 °F 95.3 °F 77.0 °F 77% 29.93 in 10.0 mi WSW 5.8 mph - N/A   Clear
9:53 PM 84.0 °F 93.7 °F 77.0 °F 79% 29.94 in 10.0 mi West 4.6 mph - N/A   Clear
10:53 PM 82.9 °F 91.8 °F 77.0 °F 82% 29.95 in 10.0 mi Calm Calm - N/A   Clear
11:53 PM 82.9 °F 91.8 °F 77.0 °F 82% 29.94 in 10.0 mi WSW 3.5 mph - N/A   Clear